Flag for Grenada Weather past 2 weeks in Saint George's, Grenada

84 °F

Passing clouds.

Feels Like: 96 °F
Forecast: N/A
Wind: 15 mph from East

Location: Point Salines Airport

Current Time: Nov 25, 2015 at 5:16:20 PM

Latest Report: Nov 25, 2015 at 4:00 PM

Visibility: N/A

Pressure: 29.83 "Hg

Humidity: 84%

Dew point: 79 °F

Location of Saint George'sLocation

Historic Weather in Saint George's — Graph


Saint George's temperature yesterday

Maximum temperature yesterday: 88 °F (at 1:00 PM)
Minimum temperature yesterday: 77 °F (at 1:00 AM)
Average temperature yesterday: 82 °F

Past Weeks' High & Low Weather Summary

High88 °F (Nov 16, 12:00 PM)100% (Nov 10, 6:00 PM)29.98 "Hg (Nov 10, 6:00 PM)
Low75 °F (Nov 10, 6:00 PM)70% (Nov 12, 11:00 AM)29.56 "Hg (Nov 22, 12:00 PM)
Average82 °F83%29.87 "Hg
* Reported Nov 10 4:00 PM — Nov 25 4:00 PM, Saint George's, Weather by CustomWeather, © 2015

Note: Actual official high and low records may vary slightly from our data, if they occured in-between our weather recording intervals... More about our weather records


Saint George's weather history for previous 24 hours

Time TempWeatherWind HumidityBarometerVisibility
4:00 PM
Wed, Nov 25
84 °FPassing clouds.15 mph84%29.83 "HgN/A
3:00 PM81 °FSprinkles. Scattered clouds.15 mph89%29.83 "HgN/A
2:00 PM86 °FScattered clouds.17 mph75%29.86 "HgN/A
1:00 PM86 °FPassing clouds.20 mph75%29.89 "HgN/A
12:00 PM84 °FScattered clouds.20 mph79%29.92 "HgN/A
11:00 AM81 °FSprinkles. Scattered clouds.18 mph89%29.92 "HgN/A
10:00 AM86 °FScattered clouds.20 mph75%29.92 "HgN/A
9:00 AM86 °FPassing clouds.18 mph75%29.92 "HgN/A
8:00 AM84 °FPassing clouds.14 mph79%29.89 "HgN/A
7:00 AM81 °FPassing clouds.14 mph89%29.89 "HgN/A
6:00 AM79 °FPassing clouds.6 mph94%29.86 "HgN/A
5:00 AM81 °FPassing clouds.7 mph89%29.83 "HgN/A
4:00 AM81 °FPassing clouds.9 mph89%29.83 "HgN/A
3:00 AM81 °FPassing clouds.12 mph84%29.83 "HgN/A
2:00 AM81 °FPassing clouds.12 mph84%29.86 "HgN/A
12:00 AM81 °FPassing clouds.9 mph89%29.86 "HgN/A
11:00 PM
Tue, Nov 24
81 °FPassing clouds.7 mph84%29.89 "HgN/A
10:00 PM79 °FPassing clouds.8 mph94%29.89 "HgN/A
9:00 PM79 °FPassing clouds.6 mph89%29.86 "HgN/A
8:00 PM81 °FPassing clouds.12 mph89%29.86 "HgN/A
7:00 PM81 °FPassing clouds.9 mph89%29.83 "HgN/A
6:00 PM81 °FPassing clouds.10 mph89%29.80 "HgN/A
5:00 PM84 °FPassing clouds.9 mph74%29.80 "HgN/A
Weather by CustomWeather, © 2015

See weather overviewHow to use our weather pages